Starlink 5594

operational
NORAD ID: 55742 Int'l Des: 2023-028 Owner: SPXS Country: US Constellation: starlink
LEOCIRCULAR

About Starlink 5594

Description loading...

Live Position

Loading 3D Globe...

Upcoming Passes

Altitude History

Altitude vs Time

uPlot chart will show altitude changes over time

Two-Line Element Set

1 55742U 23028B 25307.83336806 -.00031763 00000-0 -26626-2 0 9998
2 55742 70.0022 201.9247 0002891 264.0028 130.1613 14.98383462 5618
Epoch: Nov 3, 2025 • Age: 8 hours

Current Status

Altitude 582.2 km
Velocity 7.57 km/s
Sub-Earth Point -31.23°S, 89.11°E
Launch Date Mar 3, 2023
Age 2.6 years
Type internet

Technical Details

Classification Payload
Mass 305.00 kg
Dry Mass 290.00 kg
Total Mass 305.00 kg
Length 0.20 m
Diameter 2.80 m
Span 9.00 m
Shape Box + pan
Manufacturer SPXS
Bus Type Starlink
Phase Status In Orbit
Owner/State SPXS/US

Large Constellations

Loading constellations...